QPF
0.02 0.01 0.02 0.01 0.00 0.00 0.04 0.11 0.16 0.20 0.16 0.07 0.01 0.01 0.01 0.00 0.00 0.00 0.00 0.00 0.00 0.00 0.00 0.00 0.00 0.00 0.00
0.18 0.07 0.04 0.01 0.00 0.00 0.00 0.02 0.10 0.07 0.04 0.01 0.00 0.00 0.00 0.01 0.00 0.00 0.00 0.00 0.00 0.00 0.00 0.00 0.00 0.00 0.01
0.38 0.21 0.11 0.02 0.00 0.00 0.00 0.00 0.01 0.03 0.01 0.00 0.00 0.00 0.00 0.00 0.00 0.00 0.00 0.00 0.00 0.01 0.01 0.01 0.00 0.00 0.02
0.24 0.28 0.25 0.16 0.06 0.02 0.00 0.00 0.00 0.00 0.00 0.00 0.00 0.00 0.00 0.00 0.00 0.01 0.00 0.00 0.00 0.00 0.00 0.00 0.01 0.01 0.00
0.19 0.20 0.27 0.32 0.30 0.13 0.04 0.00 0.00 0.00 0.00 0.00 0.00 0.00 0.00 0.00 0.00 0.00 0.00 0.00 0.00 0.00 0.00 0.00 0.00 0.00 0.00
0.15 0.23 0.20 0.17 0.16 0.19 0.11 0.04 0.01 0.00 0.00 0.00 0.00 0.00 0.00 0.00 0.00 0.00 0.00 0.00 0.00 0.00 0.00 0.00 0.00 0.00 0.00
0.14 0.20 0.24 0.21 0.16 0.19 0.19 0.12 0.01 0.00 0.00 0.00 0.00 0.00 0.00 0.00 0.00 0.00 0.00 0.00 0.00 0.00 0.00 0.00 0.00 0.00 0.00
0.13 0.16 0.20 0.25 0.35 0.33 0.21 0.14 0.07 0.01 0.02 0.03 0.00 0.00 0.00 0.00 0.00 0.00 0.00 0.00 0.00 0.00 0.00 0.00 0.00 0.00 0.00
0.07 0.11 0.21 0.27 0.31 0.35 0.42 0.39 0.34 0.21 0.08 0.06 0.01 0.00 0.00 0.00 0.00 0.00 0.00 0.00 0.00 0.00 0.00 0.00 0.00 0.00 0.00
0.01 0.05 0.10 0.15 0.22 0.30 0.33 0.36 0.23 0.19 0.12 0.08 0.02 0.00 0.01 0.00 0.00 0.00 0.00 0.00 0.00 0.00 0.00 0.00 0.00 0.00 0.00
0.00 0.01 0.04 0.09 0.14 0.19 0.24 0.21 0.18 0.08 0.02 0.03 0.03 0.00 0.00 0.00 0.00 0.00 0.00 0.00 0.00 0.00 0.00 0.00 0.00 0.00 0.00
0.00 0.00 0.01 0.04 0.13 0.17 0.11 0.09 0.06 0.03 0.01 0.00 0.01 0.00 0.00 0.00 0.00 0.00 0.00 0.00 0.00 0.00 0.00 0.00 0.00 0.00 0.00
0.00 0.00 0.00 0.00 0.02 0.13 0.24 0.11 0.08 0.03 0.03 0.06 0.07 0.04 0.02 0.01 0.00 0.00 0.00 0.00 0.00 0.00 0.00 0.00 0.00 0.00 0.00
0.00 0.00 0.00 0.01 0.02 0.10 0.31 0.36 0.25 0.14 0.10 0.09 0.07 0.07 0.08 0.07 0.01 0.00 0.00 0.00 0.00 0.00 0.00 0.00 0.00 0.00 0.00
0.00 0.00 0.00 0.02 0.08 0.12 0.16 0.26 0.30 0.26 0.16 0.16 0.09 0.07 0.05 0.03 0.01 0.00 0.00 0.00 0.00 0.00 0.00 0.00 0.00 0.00 0.00
0.00 0.00 0.00 0.01 0.08 0.18 0.15 0.12 0.19 0.18 0.18 0.14 0.10 0.10 0.12 0.12 0.08 0.01 0.00 0.00 0.00 0.00 0.00 0.00 0.01 0.00 0.00
0.00 0.00 0.01 0.01 0.04 0.10 0.18 0.16 0.11 0.09 0.06 0.06 0.06 0.07 0.09 0.06 0.04 0.02 0.00 0.01 0.02 0.03 0.03 0.02 0.01 0.01 0.00
MSLP
1004.80 1004.51 1005.00 1005.76 1006.46 1006.98 1007.78 1008.48 1009.17 1009.68 1010.45 1011.60 1012.03 1013.04 1013.67 1014.30 1015.14 1015.88 1016.38 1017.10 1017.70 1018.18 1018.68 1019.17 1019.70 1020.19 1020.56
1005.34 1004.18 1004.31 1004.81 1005.66 1006.63 1007.21 1007.51 1008.17 1009.26 1009.83 1010.66 1011.47 1012.16 1012.93 1013.42 1014.32 1015.13 1015.64 1016.35 1016.97 1017.48 1018.01 1018.50 1018.86 1019.35 1019.91
1005.76 1005.25 1003.78 1004.15 1005.19 1006.09 1006.78 1007.36 1007.78 1008.07 1009.29 1009.50 1010.24 1011.17 1011.97 1012.56 1013.39 1014.28 1014.91 1015.54 1016.21 1016.70 1017.29 1017.81 1018.25 1018.74 1019.18
1006.90 1005.41 1003.58 1003.28 1004.27 1005.06 1006.19 1006.66 1007.34 1007.81 1008.20 1008.64 1009.41 1010.02 1011.00 1011.83 1012.44 1013.41 1014.15 1014.80 1015.46 1015.96 1016.45 1017.05 1017.62 1017.95 1018.39
1006.95 1005.94 1004.49 1002.77 1002.99 1003.72 1004.74 1005.74 1006.50 1006.94 1007.69 1008.26 1009.06 1009.71 1010.36 1011.33 1011.84 1012.43 1013.17 1013.98 1014.57 1015.24 1015.75 1016.24 1016.83 1017.25 1017.57
1006.73 1005.90 1004.26 1003.99 1002.19 1002.66 1003.74 1004.45 1005.32 1006.16 1006.68 1007.83 1008.45 1009.15 1009.67 1010.02 1010.67 1011.41 1012.31 1013.01 1013.66 1014.23 1014.99 1015.50 1015.99 1016.45 1016.93
1006.43 1005.53 1004.62 1003.97 1003.41 1001.93 1002.78 1003.25 1003.79 1004.86 1005.79 1006.79 1008.02 1008.54 1008.68 1009.34 1009.91 1010.75 1011.65 1012.33 1013.00 1013.57 1014.07 1014.54 1015.24 1015.76 1016.27
1005.60 1005.23 1004.39 1003.95 1004.49 1004.01 1002.74 1002.09 1003.11 1003.88 1004.38 1005.52 1006.87 1007.49 1008.06 1008.71 1009.50 1010.04 1010.61 1011.30 1012.12 1012.79 1013.46 1013.95 1014.54 1015.21 1015.73
1004.96 1003.76 1003.84 1004.07 1003.99 1003.87 1003.05 1001.36 1001.99 1002.98 1003.70 1004.41 1006.10 1007.08 1007.74 1008.16 1008.88 1009.49 1010.04 1010.39 1011.19 1011.96 1012.81 1013.55 1014.13 1014.87 1015.35
1002.94 1003.06 1002.78 1003.08 1003.19 1003.11 1002.47 1001.95 1000.91 1002.65 1002.59 1003.80 1005.65 1006.66 1008.17 1008.27 1008.43 1009.03 1009.84 1010.30 1010.82 1011.50 1012.24 1012.99 1013.80 1014.71 1015.36
1002.46 1002.29 1002.16 1002.33 1001.88 1001.77 1001.42 1002.13 1000.25 1000.61 1001.56 1002.75 1004.42 1005.86 1007.12 1008.21 1008.59 1008.62 1009.20 1009.83 1010.43 1011.31 1011.85 1012.50 1013.27 1013.89 1014.90
1001.96 1001.89 1001.50 1001.22 1000.82 1000.12 999.83 999.95 1000.17 999.50 1000.64 1000.68 1002.70 1003.93 1005.89 1007.74 1008.44 1008.80 1009.09 1009.60 1010.13 1010.98 1011.86 1012.50 1013.40 1014.07 1014.34
1000.48 1000.20 1000.15 1000.13 999.94 999.46 998.95 999.07 999.42 999.18 1000.09 1000.36 1000.67 1002.33 1003.77 1005.47 1007.18 1007.93 1009.00 1009.94 1010.34 1010.91 1011.65 1012.55 1013.27 1013.96 1014.36
999.52 999.25 999.22 999.09 998.88 998.78 998.45 998.58 999.57 999.69 999.55 999.80 999.75 1000.98 1002.77 1003.67 1004.85 1006.71 1007.54 1008.92 1010.25 1011.11 1011.71 1012.62 1013.35 1013.82 1013.77
998.61 998.58 998.45 998.52 998.33 998.44 998.04 997.94 998.40 998.94 999.83 1000.15 1000.42 1000.69 1001.53 1002.26 1004.43 1005.11 1006.63 1007.99 1008.86 1010.02 1011.43 1012.49 1013.32 1013.61 1013.86
997.41 997.37 997.33 997.31 997.19 997.50 997.57 996.71 997.14 997.50 998.28 999.35 999.84 1001.16 1002.53 1002.92 1003.20 1004.23 1005.93 1006.89 1007.88 1009.47 1010.53 1011.80 1013.07 1013.65 1013.60
996.18 995.99 996.08 996.02 995.92 995.77 995.38 995.32 995.86 996.46 996.80 997.26 998.56 999.52 1001.44 1002.98 1004.21 1004.23 1004.85 1005.86 1007.44 1009.10 1010.19 1010.79 1011.70 1012.97 1013.28
Thickness
5588 5596 5596 5597 5599 5601 5601 5604 5608 5614 5612 5603 5608 5606 5608 5608 5606 5604 5605 5601 5599 5599 5597 5595 5592 5591 5589
5567 5586 5591 5596 5595 5592 5595 5602 5602 5601 5603 5602 5601 5605 5604 5606 5604 5601 5601 5599 5597 5595 5593 5591 5591 5589 5585
5547 5559 5584 5587 5586 5585 5586 5590 5595 5592 5588 5602 5602 5601 5601 5604 5601 5597 5599 5597 5595 5594 5590 5588 5587 5584 5582
5522 5543 5572 5583 5581 5582 5580 5584 5586 5591 5594 5598 5597 5599 5599 5598 5598 5594 5594 5591 5590 5589 5589 5586 5584 5583 5580
5506 5525 5544 5572 5577 5584 5582 5582 5581 5586 5588 5591 5591 5591 5592 5589 5593 5593 5591 5589 5587 5585 5585 5584 5581 5579 5578
5487 5507 5534 5545 5576 5580 5577 5576 5579 5581 5583 5580 5581 5582 5586 5591 5592 5589 5586 5585 5584 5583 5581 5580 5578 5576 5575
5470 5495 5514 5531 5548 5572 5574 5575 5583 5578 5579 5579 5575 5579 5586 5586 5586 5582 5579 5579 5578 5578 5579 5578 5574 5573 5570
5461 5477 5499 5514 5518 5533 5559 5575 5569 5569 5575 5577 5571 5576 5578 5577 5575 5575 5575 5575 5575 5574 5572 5573 5571 5567 5564
5447 5469 5482 5494 5507 5518 5535 5562 5563 5560 5564 5571 5564 5566 5567 5571 5566 5567 5568 5573 5572 5572 5568 5564 5562 5558 5557
5443 5457 5471 5483 5495 5509 5524 5540 5558 5542 5563 5557 5552 5551 5546 5554 5560 5561 5560 5563 5564 5564 5560 5557 5553 5550 5547
5425 5443 5459 5472 5491 5505 5518 5520 5549 5544 5558 5556 5546 5544 5542 5542 5544 5551 5554 5555 5555 5552 5551 5548 5545 5544 5538
5408 5428 5450 5469 5485 5507 5517 5525 5534 5551 5550 5560 5547 5550 5538 5532 5537 5538 5542 5545 5545 5544 5539 5536 5532 5530 5530
5405 5427 5445 5459 5472 5488 5503 5512 5523 5534 5534 5546 5554 5549 5548 5539 5533 5534 5533 5529 5530 5531 5530 5526 5522 5518 5517
5394 5415 5429 5442 5460 5475 5489 5502 5502 5510 5523 5532 5542 5546 5536 5537 5537 5531 5529 5525 5519 5517 5516 5511 5509 5507 5510
5380 5396 5414 5426 5445 5455 5474 5485 5497 5503 5510 5517 5520 5528 5534 5537 5526 5531 5526 5517 5517 5513 5504 5499 5495 5495 5496
5364 5380 5399 5415 5435 5443 5457 5478 5500 5508 5507 5506 5512 5511 5507 5513 5522 5524 5517 5515 5511 5502 5497 5492 5483 5480 5483
5352 5372 5388 5406 5421 5437 5458 5475 5490 5495 5504 5510 5512 5517 5510 5505 5498 5510 5511 5508 5499 5489 5483 5484 5482 5471 5470